Stations météo

Publicité
Millau, France (7558): Température de l'air & dewpoint: 19.06.2018 02:00:00 - 25.06.2018 02:00:00 (CEST)Millau, France (7558): Température de l'air 5cm: 19.06.2018 02:00:00 - 25.06.2018 02:00:00 (CEST)Millau, France (7558): Température de l'air -20cm & Température de l'air -100cm: 19.06.2018 02:00:00 - 25.06.2018 02:00:00 (CEST)Millau, France (7558): Vitesse du vent & gusts: 19.06.2018 02:00:00 - 25.06.2018 02:00:00 (CEST)Millau, France (7558): Direction du vent: 19.06.2018 02:00:00 - 25.06.2018 02:00:00 (CEST)Millau, France (7558): reduced air pressure: 19.06.2018 02:00:00 - 25.06.2018 02:00:00 (CEST)Millau, France (7558): visibility: 19.06.2018 02:00:00 - 25.06.2018 02:00:00 (CEST)Millau, France (7558): Ensoleillement: 19.06.2018 02:00:00 - 25.06.2018 02:00:00 (CEST)Millau, France (7558): Quantités de précipitations: 19.06.2018 02:00:00 - 25.06.2018 02:00:00 (CEST)
Date & Time tt [°C] td [°C] tt 5cm [°C] tt -20cm [°C] tt -100cm [°C] ff [km/h] ff [knt] fx [km/h] fx [knt] dd ppp [hPa] vv [km] sd [min] rr [mm]
25.06.2018 02:00:00 - - - - - - - - - - - - - -
25.06.2018 01:00:00 15,4 9,1 14,2 21,0 17,8 16 9 27 15 NNE 1018,0 20 0 0,0
25.06.2018 00:00:00 16,7 10,1 15,3 20,9 17,8 13 7 31 17 NNE 1017,6 20 0 0,0
24.06.2018 23:00:00 18,0 10,1 17,0 21,0 17,8 22 12 33 18 NNE 1017,0 20 0 0,0
24.06.2018 22:00:00 19,2 9,4 17,9 20,9 17,8 26 14 33 18 N 1015,8 20 2 0,0
24.06.2018 21:00:00 20,3 9,5 19,6 20,9 17,8 20 11 31 17 N 1015,0 20 13 0,0
24.06.2018 20:00:00 23,3 10,0 25,0 20,8 17,8 19 10 34 19 NNW 1014,0 20 60 0,0
24.06.2018 19:00:00 23,9 9,8 26,2 20,7 17,8 19 11 36 19 NW 1013,7 20 58 0,0
24.06.2018 18:00:00 24,7 9,0 26,4 20,5 17,8 23 12 35 19 NW 1013,5 20 43 0,0
24.06.2018 17:00:00 23,9 8,3 26,6 20,4 17,8 19 11 30 16 SW 1014,1 20 47 0,0
24.06.2018 16:00:00 24,3 10,2 28,4 20,2 17,7 13 7 26 14 WSW 1014,3 20 60 0,0
24.06.2018 15:00:00 24,3 4,6 29,9 20,1 17,7 5 3 21 11 WSW 1014,9 20 58 0,0
24.06.2018 14:00:00 23,6 5,9 29,1 20,0 17,7 9 5 19 10 W 1015,5 20 60 0,0
24.06.2018 13:00:00 22,9 3,9 28,9 19,9 17,7 5 3 13 7 WNW 1015,9 20 60 0,0
24.06.2018 12:00:00 21,7 6,4 25,9 20,0 17,7 4 2 19 10 W 1016,2 20 57 0,0
24.06.2018 11:00:00 19,5 6,6 24,8 20,0 17,7 13 7 29 15 NNE 1017,1 20 60 0,0
24.06.2018 10:00:00 17,3 7,3 22,2 20,1 17,7 19 11 28 15 NNE 1017,9 20 60 0,0
24.06.2018 09:00:00 16,0 7,0 12,5 20,2 17,7 12 7 24 13 NNE 1018,3 20 43 0,0
24.06.2018 08:00:00 12,5 5,9 12,2 20,4 17,7 16 9 32 17 NNE 1019,1 20 9 0,0
24.06.2018 07:00:00 12,9 5,3 11,2 20,5 17,7 19 11 32 17 NNE 1019,0 20 30 0,0
24.06.2018 06:00:00 12,3 4,5 11,0 20,6 17,7 20 11 26 14 NNE 1018,9 20 0 0,0
24.06.2018 05:00:00 12,9 4,8 11,5 20,7 17,7 16 9 25 13 NNE 1018,7 20 0 0,0
24.06.2018 04:00:00 13,6 5,5 12,7 20,7 17,6 16 9 25 14 NNE 1018,9 20 0 0,0
24.06.2018 03:00:00 14,3 5,6 13,4 20,8 17,7 19 10 30 16 NNE 1019,0 20 0 0,0
24.06.2018 02:00:00 15,0 6,0 14,1 20,9 17,6 19 11 27 15 NNE 1019,2 20 0 0,0
24.06.2018 01:00:00 15,7 6,9 14,6 20,9 17,6 17 9 27 14 NNE 1019,4 20 0 0,0
24.06.2018 00:00:00 16,8 7,4 16,0 21,0 17,6 19 11 30 16 NNE 1019,1 20 0 0,0
23.06.2018 23:00:00 18,0 6,8 17,0 21,0 17,6 21 11 40 22 NNE 1018,7 20 0 0,0
23.06.2018 22:00:00 19,6 5,3 18,4 20,9 17,6 27 15 37 20 N 1017,5 20 9 0,0
23.06.2018 21:00:00 21,5 2,7 20,5 20,8 17,6 22 12 29 15 N 1016,7 20 34 0,0
23.06.2018 20:00:00 23,9 4,3 27,6 20,7 17,6 14 8 24 13 N 1015,9 20 60 0,0
23.06.2018 19:00:00 25,6 3,5 29,5 20,5 17,5 8 4 20 11 NNW 1015,4 20 60 0,0
23.06.2018 18:00:00 25,9 1,9 30,7 20,3 17,6 12 6 23 12 W 1015,7 20 60 0,0
23.06.2018 17:00:00 26,0 9,3 32,0 20,1 17,6 9 5 23 12 NW 1016,0 20 60 0,0
23.06.2018 16:00:00 25,8 6,9 32,1 19,9 17,5 8 4 23 12 WNW 1016,1 20 60 0,0
23.06.2018 15:00:00 24,9 1,7 32,6 19,8 17,5 8 4 17 9 N 1016,6 20 60 0,0
23.06.2018 14:00:00 23,7 1,9 30,2 19,7 17,5 8 4 18 10 E 1017,3 20 60 0,0
23.06.2018 13:00:00 22,2 3,3 27,7 19,6 17,5 6 3 24 13 ESE 1018,2 20 60 0,0
23.06.2018 12:00:00 21,0 5,3 25,4 19,7 17,5 15 8 29 15 NNE 1018,5 20 60 0,0
23.06.2018 11:00:00 18,2 4,7 22,8 19,7 17,5 24 13 37 20 NNE 1019,3 20 60 0,0
23.06.2018 10:00:00 16,4 5,0 18,2 19,8 17,5 27 14 50 27 NNE 1019,8 20 60 0,0
23.06.2018 09:00:00 14,3 4,3 15,5 19,9 17,4 32 17 44 24 NNE 1020,1 20 60 0,0
23.06.2018 08:00:00 12,6 4,0 12,5 20,0 17,5 35 19 51 28 NNE 1020,3 20 60 0,0
23.06.2018 07:00:00 11,2 3,7 9,4 20,2 17,4 33 18 51 27 NNE 1020,6 20 30 0,0
23.06.2018 06:00:00 10,7 3,5 9,7 20,3 17,4 26 14 44 24 NNE 1021,1 20 0 0,0
23.06.2018 05:00:00 11,4 3,4 10,2 20,4 17,4 31 17 48 26 NE 1020,9 20 0 0,0
23.06.2018 04:00:00 11,6 3,9 10,3 20,6 17,4 23 12 38 20 NNE 1021,1 20 0 0,0
23.06.2018 03:00:00 12,5 4,0 11,4 20,7 17,4 25 14 45 25 NNE 1020,8 20 0 0,0
23.06.2018 02:00:00 13,1 4,5 12,0 20,8 17,4 24 13 54 29 NE 1020,8 20 0 0,0
23.06.2018 01:00:00 13,8 4,9 12,8 20,9 17,4 32 18 62 33 NNE 1020,5 20 0 0,0
23.06.2018 00:00:00 14,7 4,4 13,6 20,9 17,4 35 19 58 31 N 1020,3 20 0 0,0
22.06.2018 23:00:00 16,1 4,5 14,5 21,0 17,3 40 22 56 30 N 1019,6 20 0 0,0
22.06.2018 22:00:00 16,9 3,9 15,8 21,0 17,3 35 19 47 26 N 1018,9 20 9 0,0
22.06.2018 21:00:00 18,8 3,0 19,1 21,0 17,3 33 18 45 24 N 1018,3 20 60 0,0
22.06.2018 20:00:00 20,6 3,3 23,6 20,9 17,3 27 15 49 26 N 1017,8 20 60 0,0
22.06.2018 19:00:00 21,6 4,6 26,1 20,8 17,3 32 17 47 26 N 1017,3 20 60 0,0
22.06.2018 18:00:00 22,2 4,3 27,5 20,7 17,3 29 16 53 28 N 1016,9 20 60 0,0
22.06.2018 17:00:00 22,7 4,2 29,1 20,6 17,3 30 16 47 26 NNE 1016,8 20 60 0,0
22.06.2018 16:00:00 22,4 3,0 29,0 20,4 17,3 34 19 46 25 NNE 1016,8 20 60 0,0
22.06.2018 15:00:00 23,0 5,0 29,8 20,3 17,3 27 15 40 22 NNE 1016,8 20 60 0,0
22.06.2018 14:00:00 22,5 5,8 29,0 20,2 17,2 19 10 37 20 NNE 1017,1 20 60 0,0
22.06.2018 13:00:00 21,5 7,3 26,8 20,2 17,2 24 13 41 22 NNE 1017,6 20 60 0,0
22.06.2018 12:00:00 20,8 8,1 26,2 20,2 17,2 21 12 36 19 NNE 1017,7 20 60 0,0
22.06.2018 11:00:00 19,3 9,2 25,5 20,2 17,2 27 15 36 20 NNE 1018,0 20 60 0,0
22.06.2018 10:00:00 18,7 11,0 23,2 20,3 17,2 16 9 34 19 NNE 1017,9 20 60 0,0
22.06.2018 09:00:00 17,4 11,9 16,2 20,4 17,1 21 11 31 17 NNE 1018,1 20 52 0,0
22.06.2018 08:00:00 15,4 11,4 14,8 20,5 17,1 26 14 38 20 NNE 1018,4 20 0 0,0
22.06.2018 07:00:00 15,1 11,9 14,5 20,6 17,1 19 11 29 16 N 1018,4 20 0 0,0
22.06.2018 06:00:00 15,7 12,3 14,5 20,7 17,1 24 13 33 18 NNE 1018,2 20 0 0,0
22.06.2018 05:00:00 16,6 12,9 15,3 20,8 17,1 19 11 35 19 N 1017,7 20 0 0,0
22.06.2018 04:00:00 17,6 13,3 16,5 20,9 17,0 25 13 35 19 NNE 1017,4 20 0 0,0
22.06.2018 03:00:00 18,4 13,7 17,2 20,9 17,0 22 12 32 17 NNE 1017,3 20 0 0,0
22.06.2018 02:00:00 19,1 13,5 17,9 21,0 17,0 22 12 30 16 NNE 1017,3 20 0 0,0
22.06.2018 01:00:00 20,4 12,9 19,2 21,0 17,0 25 13 41 22 NNE 1017,0 20 0 0,0
22.06.2018 00:00:00 21,2 14,1 20,0 21,1 17,0 19 10 32 17 N 1016,6 20 0 0,0
21.06.2018 23:00:00 21,7 15,1 20,8 21,1 17,0 22 12 27 14 NW 1016,2 20 0 0,0
21.06.2018 22:00:00 22,7 14,8 21,5 21,0 17,0 14 7 27 15 NW 1015,5 20 9 0,0
21.06.2018 21:00:00 24,6 14,7 24,4 20,9 16,9 22 12 35 19 NW 1014,9 20 60 0,0
21.06.2018 20:00:00 25,4 15,7 25,3 20,8 17,0 29 16 48 26 NW 1014,6 20 50 0,0
21.06.2018 19:00:00 27,2 15,2 30,5 20,7 16,9 27 15 41 22 NW 1013,6 20 60 0,0
21.06.2018 18:00:00 28,2 14,4 32,1 20,5 16,9 23 13 42 23 NW 1013,8 20 60 0,0
21.06.2018 17:00:00 28,7 13,0 31,4 20,3 16,9 22 12 43 23 WNW 1013,8 20 57 0,0
21.06.2018 16:00:00 28,3 13,8 33,2 20,1 16,8 24 13 37 20 NW 1014,3 20 58 0,0
21.06.2018 15:00:00 28,1 14,3 28,7 20,0 16,8 19 10 35 19 NW 1014,6 20 55 0,0
21.06.2018 14:00:00 27,1 14,8 28,5 19,9 16,8 25 13 40 22 NNW 1014,9 20 51 0,0
21.06.2018 13:00:00 25,6 15,3 27,6 19,8 16,8 16 9 27 15 NNW 1015,8 20 14 0,0
21.06.2018 12:00:00 26,0 17,4 30,9 19,8 16,8 6 3 18 10 SSW 1015,8 20 57 0,0
21.06.2018 11:00:00 23,8 15,6 29,9 19,8 16,8 7 4 13 7 SSW 1016,6 20 60 0,0
21.06.2018 10:00:00 22,4 16,2 26,0 19,8 16,8 5 3 7 4 SSW 1017,2 20 52 0,0
21.06.2018 09:00:00 20,9 13,6 23,5 19,9 16,8 4 2 9 5 NNE 1017,8 20 60 0,0
21.06.2018 08:00:00 19,9 14,0 19,4 20,0 16,7 0 0 8 5 N 1017,8 20 60 0,0
21.06.2018 07:00:00 18,1 12,5 15,3 20,1 16,7 6 3 10 5 NNE 1018,2 20 31 0,0
21.06.2018 06:00:00 17,9 12,3 15,4 20,2 16,7 5 3 16 9 NNE 1018,0 20 0 0,0
21.06.2018 05:00:00 17,8 12,7 15,8 20,3 16,7 13 7 16 9 NNE 1018,1 20 0 0,0
21.06.2018 04:00:00 18,9 12,4 16,8 20,4 16,6 5 3 10 5 ENE 1018,1 20 0 0,0
21.06.2018 03:00:00 19,3 12,6 17,3 20,4 16,6 7 4 14 7 ENE 1018,5 20 0 0,0
21.06.2018 02:00:00 19,3 12,6 17,9 20,5 16,6 13 7 16 9 ESE 1018,7 20 0 0,0
21.06.2018 01:00:00 19,9 12,6 18,4 20,6 16,6 11 6 16 9 ESE 1018,5 20 0 0,0
21.06.2018 00:00:00 21,0 12,4 19,0 20,6 16,6 6 3 14 7 SE 1018,4 20 0 0,0
20.06.2018 23:00:00 21,8 11,8 19,3 20,6 16,6 10 5 13 7 SSE 1018,4 20 0 0,0
20.06.2018 22:00:00 22,4 13,5 20,3 20,5 16,5 9 5 14 8 SSW 1017,4 20 9 0,0
20.06.2018 21:00:00 24,1 14,5 23,4 20,4 16,5 8 4 14 7 SSW 1016,5 20 60 0,0
20.06.2018 20:00:00 25,9 15,0 28,2 20,2 16,5 11 6 22 12 SSW 1015,8 20 60 0,0
20.06.2018 19:00:00 26,9 15,6 30,3 20,1 16,5 16 9 28 15 SSW 1015,4 20 60 0,0
20.06.2018 18:00:00 27,2 15,9 28,9 19,9 16,5 20 11 29 15 SSE 1015,5 20 53 0,0
20.06.2018 17:00:00 28,5 14,3 34,0 19,7 16,4 13 7 26 14 SSE 1015,5 20 60 0,0
20.06.2018 16:00:00 28,1 12,8 33,8 19,5 16,4 14 8 29 16 SSE 1015,7 20 60 0,0
20.06.2018 15:00:00 28,3 15,2 28,8 19,2 16,4 12 7 24 13 SE 1015,7 20 54 0,0
20.06.2018 14:00:00 27,5 14,5 34,0 19,1 16,4 12 7 23 12 SSE 1016,3 20 60 0,0
20.06.2018 13:00:00 26,6 15,6 33,0 19,0 16,4 10 6 18 10 SSE 1016,9 20 60 0,0
20.06.2018 12:00:00 25,3 15,0 32,0 18,9 16,4 6 3 16 9 SE 1017,5 20 60 0,0
20.06.2018 11:00:00 24,4 16,4 30,1 18,9 16,4 5 3 10 6 S 1017,7 20 60 0,0
20.06.2018 10:00:00 22,6 15,4 26,8 19,0 16,4 5 3 10 6 N 1018,3 20 60 0,0
20.06.2018 09:00:00 20,3 14,6 23,4 19,0 16,4 7 4 13 7 NNE 1019,0 20 60 0,0
20.06.2018 08:00:00 18,4 13,9 19,0 19,1 16,3 9 5 15 8 NNE 1019,6 20 60 0,0
20.06.2018 07:00:00 17,1 13,4 14,9 19,2 16,3 9 5 17 9 NNE 1019,7 20 31 0,0
20.06.2018 06:00:00 16,7 13,4 14,8 19,3 16,3 9 5 16 8 NNE 1019,7 20 0 0,0
20.06.2018 05:00:00 16,9 13,4 15,5 19,4 16,3 9 5 17 9 NNE 1019,7 20 0 0,0
20.06.2018 04:00:00 17,2 13,3 15,9 19,5 16,3 14 7 18 10 NE 1019,8 20 0 0,0
20.06.2018 03:00:00 17,7 13,0 16,5 19,5 16,3 12 6 21 12 NE 1019,9 20 0 0,0
20.06.2018 02:00:00 18,1 12,8 17,1 19,6 16,3 18 10 27 15 NE 1019,9 20 0 0,0
20.06.2018 01:00:00 19,3 11,8 17,8 19,6 16,2 18 10 30 16 NNE 1019,7 20 0 0,0
20.06.2018 00:00:00 20,2 11,4 18,8 19,6 16,3 23 13 33 18 N 1019,2 20 0 0,0
19.06.2018 23:00:00 21,4 11,7 19,7 19,5 16,3 21 12 27 15 N 1018,8 20 0 0,0
19.06.2018 22:00:00 22,2 15,5 20,5 19,4 16,2 7 4 19 10 W 1018,2 20 9 0,0
19.06.2018 21:00:00 24,2 16,2 24,3 19,3 16,3 14 8 20 11 WSW 1017,4 20 55 0,0
19.06.2018 20:00:00 25,2 15,8 26,0 19,1 16,3 16 8 24 13 WSW 1017,3 20 58 0,0
19.06.2018 19:00:00 26,1 15,8 29,9 18,9 16,2 15 8 22 12 SW 1017,2 20 60 0,0
19.06.2018 18:00:00 27,2 14,9 31,8 18,7 16,2 11 6 24 13 WSW 1017,2 20 60 0,0
19.06.2018 17:00:00 27,0 15,1 32,3 18,4 16,2 11 6 23 13 SW 1017,6 20 60 0,0
19.06.2018 16:00:00 26,4 15,4 32,1 18,2 16,2 13 7 22 12 SSW 1017,8 20 60 0,0
19.06.2018 15:00:00 26,4 13,8 33,7 17,9 16,2 8 4 19 10 W 1018,2 20 60 0,0
19.06.2018 14:00:00 25,5 13,0 32,5 17,8 16,2 7 4 17 9 N 1018,7 20 60 0,0
19.06.2018 13:00:00 24,1 12,7 30,7 17,7 16,2 13 7 25 14 N 1019,4 20 60 0,0
19.06.2018 12:00:00 22,3 12,8 28,9 17,6 16,2 13 7 24 13 NNE 1020,1 20 60 0,0
19.06.2018 11:00:00 21,0 12,2 26,6 17,6 16,2 11 6 27 15 NNE 1020,6 20 60 0,0
19.06.2018 10:00:00 19,2 11,5 23,2 17,7 16,2 20 11 34 19 N 1021,3 20 60 0,0
19.06.2018 09:00:00 17,7 11,0 20,2 17,8 16,2 23 12 39 21 N 1022,0 20 60 0,0
19.06.2018 08:00:00 16,4 10,5 16,5 17,8 16,2 22 12 42 23 N 1022,2 20 60 0,0
19.06.2018 07:00:00 15,3 10,3 13,0 17,8 16,1 29 16 45 24 N 1022,3 20 31 0,0
19.06.2018 06:00:00 14,5 10,1 12,7 18,0 16,2 22 12 46 25 N 1022,5 20 0 0,0
19.06.2018 05:00:00 13,9 10,5 12,4 18,0 16,2 19 11 26 14 N 1023,0 20 0 0,0
19.06.2018 04:00:00 13,8 10,8 12,4 18,1 16,2 8 5 44 24 NNW 1023,2 20 0 0,0
19.06.2018 03:00:00 14,2 11,5 13,2 18,2 16,1 25 13 42 23 NW 1022,9 20 0 0,0
19.06.2018 02:00:00 14,7 12,2 13,5 18,2 16,1 29 16 38 20 NNW 1022,8 20 0 0,0

tt = Température de l'air
td = dewpoint
tt 5cm = Température de l'air 5cm
tt -20cm = Température de l'air -20cm
tt -100cm = Température de l'air -100cm
ff = Vitesse du vent
fx = gusts
dd = Direction du vent
ppp = reduced air pressure
vv = visibility
sd = Ensoleillement
rr = Quantités de précipitations

stations d'obs. à proximité